Location: Doverdale
(52.2833°N, 2.2000°W)
Time: 12:01:03
(UTC+00:00)

Helios 1A Rocket - Pass Details

Date: 29 October 2020
Orbit: 562 x 587 km, 98.3° (Epoch: 25 November)

Event Time Altitude Azimuth Distance (km) Brightness Sun altitude
Rises 18:49:58 0° 179° (S) 2,794 6.4 -19.6°
Reaches altitude 10° 18:52:11 10° 186° (S) 1,896 5.6 -20.0°
Maximum altitude 18:56:09 46° 260° (W) 784 4.0 -20.6°
Drops below altitude 10° 19:00:07 10° 334° (NNW) 1,897 5.9 -21.2°
Sets 19:02:20 0° 341° (NNW) 2,796 6.7 -21.5°
